Weather in Spas-Klepiki

Russia / Ryazan Oblast     55°07′51″N   40°10′32″E
temp.,
°C
wind,
m/s
gust,
m/s
humid.,
%
clouds,
%
prec.,
mm/h
press.,
hPa
HPBL,
m
26 february, fri
fri2600:000w2596100 0.0 1013141
03:000wsw2698100 0.0 1012192
06:00+1ssw3699100 0.6 1010159
09:00+3wsw412100100 2.0 1007397
12:00+3wsw513100100 0.1 1004431
15:00+3wsw61599100 0.6 1002555
18:00+3w51596100 0.4 1001819
21:00+2w61489100 0.4 1001959
27 february, sat
sat2700:00+1w6138999 0.0 9991026
03:00+1w61297100 0.3 1000815
06:00+1wnw71497100 0.4 999951
09:00−8nnw61285100 1.5 1002801
12:00−9nnw51084100 0.0 1005685
15:00−7nnw51084100 0.1 1008658
18:00−9nnw31091100 0.0 1009512
21:00−11n3109385 0.0 1012401
28 february, sun
sun2800:00−12nnw379664 0.0 1013234
03:00−13nnw269652 0.0 1015180
06:00−14nnw259626 0.0 1015132
09:00−12nnw249253 0.1 1016265
12:00−8nnw248791 0.0 1016443
15:00−6nnw358796 0.1 1017607
18:00−7n2296100 0.1 101830
21:00−10nne229694 0.1 102036
1 march, mon
mon100:00−12nne129678 0.0 102121
03:00−12nnw119678 0.0 102321
06:00−11nw129696 0.0 102421
09:00−9wnw129498 0.1 102595
12:00−4w238795 0.0 1025443
15:00−2wsw358596 0.1 1024672
18:00−3wsw4993100 0.0 1021460
21:00−2w41294100 0.1 1019611
2 march, tue
tue200:000w51196100 0.4 1016600
03:00+1wnw51293100 0.4 1015736
06:00+1wnw51296100 0.1 1014710
09:00+1nw51197100 0.1 1013690
12:00+1nw6129898 0.2 10131004
15:00+1nw6128799 0.3 10131173
18:000nw4118799 0.1 1013917
21:000nw4119199 0.2 1013915